Regional Weather Roundup
Issued by NWS

Home | Current Version | Previous Version | Graphics & Text | Print | Product List | Glossary On
Versions: 1 2 3 4 5 6 7 8 9 10 11 12 13 14 15 16 17 18 19 20 21 22 23 24 25 26 27 28 29 30 31 32 33 34 35 36 37 38 39 40 41 42 43 44 45 46 47 48 49 50
000
ASUS45 KBOU 052207
RWRCO

WEATHER ROUNDUP FOR COLORADO
NATIONAL WEATHER SERVICE DENVER/BOULDER CO
300 PM MST FRI FEB 05 2016

NOTE: "FAIR" INDICATES FEW OR NO CLOUDS BELOW 12000 FEET WITH NO
SIGNIFICANT WEATHER AND/OR OBSTRUCTIONS TO VISIBILITY.

COZ001>005-013-030-031-052300-
...NORTHWEST COLORADO...

CITY           SKY/WX    TMP DP  RH WIND       PRES   REMARKS
CRAIG          SUNNY     23  14  68 N5        30.44F WCI  17
HAYDEN         CLOUDY    21  12  68 S5        30.43S WCI  15
MEEKER         SUNNY     25  18  74 N3        30.43F
MOUNT WERNER   NOT AVBL
STEAMBOAT SPGS CLOUDY    23  13  65 CALM      30.42S
WALDEN         SUNNY     19   9  63 S16       30.33S WCI   5
$$

COZ006>008-011-052300-
...WEST CENTRAL VALLEYS...

CITY           SKY/WX    TMP DP  RH WIND       PRES   REMARKS
GRAND JUNCTION SUNNY     24  15  68 NE3       30.53F
MONTROSE       SUNNY     25  13  60 N6        30.51R WCI  18
EAGLE          SUNNY     27  14  59 CALM      30.45R
RIFLE          MOSUNNY   24  12  60 CALM      30.48F
DELTA          SUNNY     30  15  53 CALM      30.52F
NUCLA          SUNNY     28  16  59 CALM      30.50S
$$

COZ017>023-064>068-052300-
...SOUTHWEST COLORADO...

CITY           SKY/WX    TMP DP  RH WIND       PRES   REMARKS
DURANGO        SUNNY     25  12  58 NE7       30.36S WCI  17
CORTEZ         SUNNY     34  12  40 NW16G25   30.40S WCI  24
PAGOSA SPRINGS SUNNY     29   9  42 SW9       30.32R WCI  21
TELLURIDE      SUNNY     24   3  40 W8        30.35S WCI  15
WOLF CREEK PAS SUNNY     14  -8  37 N13G18    30.28R WCI   0
$$

COZ009-010-012-014-032>034-037-058>063-052300-
...CENTRAL COLORADO...

CITY           SKY/WX    TMP DP  RH WIND       PRES   REMARKS
ASPEN          SUNNY     25   7  46 CALM      30.38R
BUENA VISTA    SUNNY     27   5  38 NW24G36   30.26R WCI  12
COPPER MTN     PTSUNNY    9   1  72 NW15G24   30.23R WCI  -8
BERTHOUD PASS  PTSUNNY    1  -9  60 N15G40    30.18R WCI -18
COTTONWOOD PAS SUNNY     28  -4  24 W5G16     30.23S WCI  23
GUNNISON       SUNNY      3   0  85 E3        30.43S
KREMMLING      FLURRIES  14   7  73 CALM      30.42R
LEADVILLE      SUNNY     17   2  51 NW10G21   30.26S WCI   5
MONARCH PASS   PTSUNNY    5   1  85 MISG      30.31R
SALIDA         SUNNY     32   2  27 CALM      30.35S
SUNLIGHT       LGT SNOW N/A N/A N/A CALM        N/A
WILKERSON PASS SUNNY     14   0  52 NW9G21    30.20R WCI   2
$$

COZ069>075-052300-
...SAN LUIS VALLEY/SANGRE DE CRISTO MOUNTAINS...

CITY           SKY/WX    TMP DP  RH WIND       PRES   REMARKS
ALAMOSA        SUNNY     30   4  33 NW10      30.29R WCI  21
LA VETA PASS   SUNNY     23   5  46 MISG      30.21R
SAGUACHE       SUNNY     28   7  40 NW20G26   30.30R WCI  15
$$

COZ035-036-038>040-052300-
...NORTHERN COLORADO FRONT RANGE...

CITY           SKY/WX    TMP DP  RH WIND       PRES   REMARKS
DENVER INTL AP MOSUNNY   33  13  43 NE7       30.26S WCI  27
DMNS CITY PARK   N/A     35  10  35 E12G17    30.26S WCI  26
AURORA         MOSUNNY   32  12  44 E6        30.27R WCI  26
FRONT RANGE AP MOSUNNY   30  12  47 MISG      30.27S
ERIE MUNI ARPT SUNNY     36  10  34 SE7       30.26S
BOULDER MUN AP SUNNY     36  12  38 E6        30.26R
CENTENNIAL     MOSUNNY   31  10  41 E8        30.25S WCI  23
BROOMFIELD     MOSUNNY   36  12  38 E6        30.26S
FORT COLLINS   CLOUDY    30  16  55 S8        30.27R WCI  23
LONGMONT       CLOUDY    39  12  32 SE6       30.29R
$$

COZ041-046-047-076>085-087-088-052300-
...PIKES PEAK/PALMER DIVIDE AND SOUTHERN FOOTHILLS...

CITY           SKY/WX    TMP DP  RH WIND       PRES   REMARKS
COLO. SPRINGS  MOSUNNY   30  11  45 SE8       30.27S WCI  22
A. F. ACADEMY  SUNNY     30   4  32 SE2       30.24S
SCHRIEVER AFB  FAIR      29  10  44 S6        30.27S WCI  22
ELLICOTT       NOT AVBL
FALCON         SUNNY     31   7  36 CALM      30.25S
FORT CARSON    SUNNY     31  13  48 SE6       30.25F WCI  25
LIMON          SUNNY     27  16  63 W8        30.27S WCI  19
MONUMENT HILL  SUNNY     25   9  50 E5        30.25S WCI  19
TRINIDAD       SUNNY     36  16  44 N12       30.29S
$$

COZ042>045-048>051-090-091-052300-
...NORTHEAST COLORADO...

CITY           SKY/WX    TMP DP  RH WIND       PRES   REMARKS
GREELEY ARPT   SUNNY     34  18  51 CALM      30.27S
AKRON          SUNNY     30  20  66 NW15      30.26R WCI  19
BURLINGTON     SUNNY     33  19  56 NW17      30.26S WCI  22
WRAY           SUNNY     37  23  55 NW21G26   30.25S
STERLING       SUNNY     34  21  60 NW15      30.27R WCI  24
HOLYOKE        SUNNY     37  23  56 NW12G20   30.25R
FORT MORGAN    SUNNY     35  19  53 NW10      30.29R WCI  27
$$

COZ086-089-092>099-052300-
...SOUTHEAST COLORADO...

CITY           SKY/WX    TMP DP  RH WIND       PRES   REMARKS
PUEBLO         SUNNY     38  13  35 E10       30.29F
LA JUNTA       SUNNY     39  19  44 N12       30.32F
LAMAR          SUNNY     43  19  38 N22G28    30.29S
SPRINGFIELD      N/A     37  20  50 N26       30.28R
$$



USA.gov is the U.S. government's official web portal to all federal, state and local government web resources and services.